Terminal Aerodrome Forecast
Issued by NWS Sterling, VA

Current Version | Previous Version | Graphics & Text | Print | Product List | Glossary On
Versions: 1 2 3 4 5 6 7 8 9 10 11 12 13 14 15 16 17 18 19 20 21
000
FTUS41 KLWX 202100 AAA
TAFDCA
TAF AMD
KDCA 202104Z 2021/2118 24008KT P6SM FEW080
     FM202200 28012G20KT P6SM FEW080
     FM210100 30008KT P6SM SCT200
     FM211400 31012G18KT P6SM SKC=

USA.gov is the U.S. government's official web portal to all federal, state and local government web resources and services.